TimePDT,TemperatureF,Dew PointF,Humidity,Sea Level PressureIn,VisibilityMPH,Wind Direction,Wind SpeedMPH,Gust SpeedMPH,PrecipitationIn,Events,Conditions,WindDirDegrees,DateUTC
12:00 AM,55.0,23.4,29,30.37,-9999.0,NW,10.4,19.6,N/A,,Unknown,310,2012-10-03 07:00:00
1:00 AM,52.2,25.0,35,30.39,-9999.0,NW,6.9,-,N/A,,Unknown,310,2012-10-03 08:00:00
2:00 AM,52,25,23,30.40,,NW,8.1,,,,,320,2012-10-03 09:00:00
2:00 AM,52.0,25.0,35,30.40,-9999.0,NNW,8.1,-,N/A,,Unknown,330,2012-10-03 09:00:00
3:00 AM,49.6,26.4,41,30.42,-9999.0,NW,8.1,-,N/A,,Unknown,320,2012-10-03 10:00:00
4:00 AM,49.1,26.6,42,30.43,-9999.0,NNW,6.9,-,N/A,,Unknown,340,2012-10-03 11:00:00
5:00 AM,47,28,34,30.43,,North,4.6,,,,,350,2012-10-03 12:00:00
5:00 AM,47.5,27.7,46,30.43,-9999.0,North,4.6,-,N/A,,Unknown,350,2012-10-03 12:00:00
6:00 AM,45.7,28.2,51,30.46,-9999.0,NNW,3.5,-,N/A,,Unknown,330,2012-10-03 13:00:00
7:00 AM,45.0,28.4,52,30.45,-9999.0,WNW,1.2,-,N/A,,Unknown,300,2012-10-03 14:00:00
8:00 AM,45,29,40,30.46,,NW,4.6,,,,,310,2012-10-03 15:00:00
8:00 AM,45.0,28.8,53,30.46,-9999.0,NW,4.6,-,N/A,,Unknown,310,2012-10-03 15:00:00
9:00 AM,48.6,28.9,47,30.46,-9999.0,NW,3.5,-,N/A,,Unknown,320,2012-10-03 16:00:00
10:00 AM,52.3,30.0,42,30.46,-9999.0,NNW,4.6,-,N/A,,Unknown,330,2012-10-03 17:00:00
11:00 AM,56,28,22,30.44,,WNW,4.6,,,,,290,2012-10-03 18:00:00
11:00 AM,56.3,28.2,34,30.44,-9999.0,WNW,4.6,-,N/A,,Unknown,290,2012-10-03 18:00:00
12:00 PM,61.0,28.9,30,30.42,-9999.0,WNW,4.6,-,N/A,,Unknown,300,2012-10-03 19:00:00
1:00 PM,64.4,25.2,23,30.40,-9999.0,WNW,5.8,-,N/A,,Unknown,300,2012-10-03 20:00:00
2:00 PM,66,24,11,30.37,,West,3.5,,,,,280,2012-10-03 21:00:00
2:00 PM,65.8,23.7,20,30.37,-9999.0,West,3.5,-,N/A,,Unknown,280,2012-10-03 21:00:00
3:00 PM,67.5,24.3,20,30.34,-9999.0,NW,3.5,-,N/A,,Unknown,310,2012-10-03 22:00:00
4:00 PM,67.6,23.7,19,30.32,-9999.0,West,3.5,-,N/A,,Unknown,270,2012-10-03 23:00:00
5:00 PM,62,28,17,30.32,,South,3.5,,,,,170,2012-10-04 00:00:00
5:00 PM,62.2,28.0,27,30.32,-9999.0,South,3.5,-,N/A,,Unknown,170,2012-10-04 00:00:00
6:00 PM,59.2,28.4,31,30.31,-9999.0,SE,4.6,-,N/A,,Unknown,140,2012-10-04 01:00:00
7:00 PM,50.7,36.1,57,30.32,-9999.0,NE,2.3,-,N/A,,Unknown,50,2012-10-04 02:00:00
8:00 PM,47,36,57,30.32,,NE,2.3,,,,,50,2012-10-04 03:00:00
8:00 PM,47.1,36.5,67,30.32,-9999.0,NE,2.3,-,N/A,,Unknown,50,2012-10-04 03:00:00
9:00 PM,44.6,35.6,71,30.34,-9999.0,NNE,2.3,-,N/A,,Unknown,30,2012-10-04 04:00:00
10:00 PM,42.3,34.7,75,30.34,-9999.0,NE,2.3,-,N/A,,Unknown,50,2012-10-04 05:00:00
11:00 PM,41,34,68,30.35,,ENE,2.3,,,,,60,2012-10-04 06:00:00
11:00 PM,41.2,34.2,76,30.35,-9999.0,ENE,2.3,-,N/A,,Unknown,60,2012-10-04 06:00:00